Zurück zum Katalog

OPS 6432 DEB

AktivLEO
NORAD 14146·DEBRIS·🇺🇸 United States

Gestartet Jun 9, 1983 von Vandenberg Space Force Base

Loading…

Nächste Überflüge (nächste 24 Stunden)

TLE

VeraltetSource: Space-Track

Epoche: Oct 13, 1983, 22:43 UTC

1 14146U 83056  F 83286.94720240  .00001698 +00000-0 +99999-4 0  9996
2 14146 063.4377 007.8888 0066550 161.4444 198.9436 13.41573047016904

Verfolge OPS 6432 DEB in Echtzeit mit AllMySat

Download on the App Store